TimeMDT,TemperatureF,Dew PointF,Humidity,Sea Level PressureIn,VisibilityMPH,Wind Direction,Wind SpeedMPH,Gust SpeedMPH,PrecipitationIn,Events,Conditions,WindDirDegrees,DateUTC
12:55 AM,63.0,45.0,52,29.96,10.0,North,16.1,-,N/A,,Clear,360,2013-07-30 06:55:00
1:55 AM,62.1,45.0,53,29.97,10.0,North,16.1,-,N/A,,Clear,360,2013-07-30 07:55:00
2:55 AM,60.1,45.0,57,29.99,10.0,North,15.0,-,N/A,,Clear,360,2013-07-30 08:55:00
3:55 AM,60.1,45.0,57,30.01,10.0,North,15.0,21.9,N/A,,Clear,360,2013-07-30 09:55:00
4:55 AM,57.0,46.0,67,30.03,10.0,NNW,9.2,-,N/A,,Clear,340,2013-07-30 10:55:00
5:55 AM,55.9,46.0,69,30.05,10.0,NNW,8.1,-,N/A,,Clear,340,2013-07-30 11:55:00
6:55 AM,55.9,46.0,69,30.07,10.0,NNW,8.1,-,N/A,,Clear,340,2013-07-30 12:55:00
7:55 AM,57.9,45.0,62,30.08,10.0,North,10.4,-,N/A,,Clear,360,2013-07-30 13:55:00
8:55 AM,63.0,45.0,52,30.09,10.0,North,12.7,-,N/A,,Clear,360,2013-07-30 14:55:00
9:55 AM,66.0,46.0,48,30.10,10.0,North,11.5,-,N/A,,Clear,360,2013-07-30 15:55:00
10:55 AM,68.0,46.9,47,30.10,10.0,Variable,6.9,-,N/A,,Clear,0,2013-07-30 16:55:00
11:55 AM,72.0,46.9,41,30.09,10.0,ENE,5.8,-,N/A,,Clear,70,2013-07-30 17:55:00
12:55 PM,75.0,46.0,36,30.07,10.0,Variable,3.5,-,N/A,,Clear,0,2013-07-30 18:55:00
1:55 PM,75.9,46.9,36,30.06,10.0,SE,5.8,-,N/A,,Clear,130,2013-07-30 19:55:00
2:55 PM,80.1,44.1,28,30.06,10.0,Variable,4.6,-,N/A,,Clear,0,2013-07-30 20:55:00
3:55 PM,80.1,43.0,27,30.04,10.0,Calm,Calm,-,N/A,,Clear,0,2013-07-30 21:55:00
4:55 PM,79.0,43.0,28,30.04,10.0,NNE,4.6,-,N/A,,Overcast,30,2013-07-30 22:55:00
5:55 PM,80.1,43.0,27,30.04,10.0,SE,6.9,-,N/A,,Clear,130,2013-07-30 23:55:00
6:55 PM,81.0,42.1,25,30.04,10.0,Calm,Calm,-,N/A,,Clear,0,2013-07-31 00:55:00
7:55 PM,80.1,42.1,26,30.04,10.0,Calm,Calm,-,N/A,,Clear,0,2013-07-31 01:55:00
8:55 PM,71.1,52.0,51,30.06,10.0,Calm,Calm,-,N/A,,Clear,0,2013-07-31 02:55:00
9:55 PM,63.0,48.9,60,30.08,10.0,Calm,Calm,-,N/A,,Clear,0,2013-07-31 03:55:00
10:55 PM,57.9,48.0,70,30.11,10.0,Calm,Calm,-,N/A,,Clear,0,2013-07-31 04:55:00
11:55 PM,55.9,48.9,77,30.12,10.0,North,3.5,-,N/A,,Clear,350,2013-07-31 05:55:00